Helicity
31 43 22 31 0 51 38 39 48 57 12 -71 1 -89 132 307 261 199 256 322 351 379 359 312 283 251 224 227 186 162 177 166 92 83 136 158 167 189 213 230 222 205 200 161
34 50 59 24 -11 19 -33 -4 70 43 67 1 36 25 73 134 156 215 288 273 341 245 271 268 253 237 210 200 178 148 133 147 153 201 205 103 84 157 179 194 216 226 225 229
27 61 63 29 19 58 19 33 10 48 44 79 -19 -31 38 174 260 172 141 103 107 131 72 93 110 130 151 156 175 184 195 196 182 181 175 168 162 191 133 106 143 199 236 251
-43 -9 15 43 110 47 51 27 55 26 14 44 46 233 207 252 177 138 91 92 97 100 33 63 90 110 103 140 157 171 189 195 180 193 190 184 189 176 149 137 152 150 110 168
-9 6 27 48 43 33 74 77 51 18 45 68 183 469 415 284 205 161 86 72 56 84 101 105 127 121 113 114 106 107 122 138 159 160 150 135 137 152 143 138 122 113 100 83
42 15 28 58 133 26 26 73 65 41 9 164 124 218 217 129 123 68 86 68 74 65 57 80 106 90 86 94 87 96 91 82 68 58 52 94 121 124 108 113 120 107 100 124
50 59 53 18 30 29 29 60 65 63 137 106 97 58 197 170 152 135 108 94 89 88 101 102 93 84 100 111 127 98 86 83 86 86 66 64 41 45 77 110 109 57 46 107
43 45 31 35 39 40 46 137 80 262 288 392 301 314 228 188 158 128 123 101 73 64 89 95 90 75 84 102 83 79 90 99 114 122 108 101 111 99 93 89 77 83 96 119
35 42 78 60 115 163 126 96 70 208 227 336 342 264 190 185 83 94 96 89 93 76 79 87 81 74 66 65 38 37 45 68 98 125 156 142 157 156 122 129 117 119 107 118
50 66 110 136 156 244 293 308 240 178 121 61 58 52 77 89 104 119 118 125 97 101 106 104 101 110 95 66 39 35 37 39 42 67 94 129 85 96 110 85 81 135 172 185
23 102 137 169 167 191 329 337 309 279 204 149 122 142 119 113 120 128 134 151 140 126 121 121 121 143 145 133 96 95 99 105 104 82 58 73 153 119 94 156 99 18 77 208
57 71 158 158 214 206 163 235 274 298 219 157 119 122 112 101 122 131 134 133 139 141 143 146 150 156 159 126 99 72 89 93 83 76 65 40 4 45 214 218 240 229 183 14
11 94 80 52 60 126 184 91 62 84 87 116 89 39 62 89 111 139 155 168 177 168 151 138 147 168 151 118 89 78 61 63 74 83 76 72 72 58 45 78 213 264 251 250
28 -2 -9 32 16 36 48 50 38 48 75 57 68 97 91 103 154 183 193 172 170 184 206 189 185 197 171 145 127 121 112 132 116 123 120 125 133 143 140 158 169 174 203 218
39 65 80 68 56 38 36 21 40 61 77 90 95 92 99 123 157 181 192 181 181 210 225 213 205 199 153 124 131 136 128 121 120 123 131 127 122 129 126 128 133 141 147 176
45 60 67 67 53 53 52 56 71 61 89 97 113 121 128 145 167 195 209 196 188 196 191 181 179 162 138 126 127 126 127 136 123 109 107 109 107 108 111 115 127 141 155 151
44 66 66 79 81 77 74 82 79 79 95 101 105 110 122 136 174 207 204 178 164 168 165 163 142 124 120 117 109 101 95 99 102 98 100 99 101 101 95 96 99 111 122 139
124 126 143 97 66 69 89 100 108 114 115 107 124 138 157 170 162 165 155 132 144 154 165 141 98 100 101 83 75 70 74 80 95 102 103 116 110 110 114 116 118 114 116 146
115 115 106 108 97 104 104 116 138 149 148 138 150 156 143 142 131 118 103 113 118 118 112 86 88 89 100 103 90 92 107 110 119 126 122 130 131 125 125 127 133 133 124 124
126 130 138 149 165 152 168 178 161 152 134 135 130 130 119 92 67 67 50 67 66 50 64 88 98 114 116 131 128 119 128 138 133 138 136 134 136 143 131 132 115 109 102 86
100 100 115 131 141 135 126 107 105 112 94 85 78 67 59 52 55 45 75 82 97 90 101 123 119 107 108 115 133 144 151 152 151 138 132 126 134 127 120 108 102 105 92 77
90 102 109 111 115 120 107 94 83 65 59 60 54 56 70 66 66 74 69 74 79 107 107 108 108 122 119 142 132 142 139 135 126 118 116 108 105 101 96 83 79 71 70 70
93 88 87 86 79 65 51 46 40 35 32 26 21 21 29 27 31 48 67 81 89 103 100 98 107 128 136 127 126 125 123 122 110 108 91 76 66 67 65 67 64 64 69 67
58 44 39 25 19 26 38 25 39 37 40 32 25 13 37 57 74 81 81 94 97 116 111 104 110 121 118 106 109 107 104 105 97 83 70 66 60 61 68 59 62 61 69 72
12 7 1 -5 5 17 30 41 48 46 47 48 41 40 46 52 69 52 71 73 93 97 95 99 108 108 100 91 89 93 83 75 68 67 60 57 58 62 59 52 45 49 51 51
47 54 62 72 59 56 61 69 82 94 90 84 78 67 66 65 71 76 74 67 64 65 70 71 77 78 91 89 80 67 58 54 46 45 53 54 60 63 63 60 57 57 58 56
85 83 85 88 85 84 104 106 108 104 102 105 100 69 47 57 73 85 82 81 68 63 63 59 67 67 67 64 60 54 51 47 49 52 56 60 71 72 67 57 57 62 65 64
Wind_Speed
56 58 60 65 65 59 59 62 61 57 70 72 48 37 37 32 19 11 11 10 10 13 16 19 21 26 28 30 33 36 28 29 36 26 31 28 26 23 23 24 25 27 29 32
59 52 56 66 65 64 60 63 71 79 78 50 42 35 39 32 20 16 17 14 15 19 21 21 24 27 31 33 36 36 35 37 41 40 40 50 50 42 38 35 34 38 37 37
56 54 64 63 45 57 54 52 54 71 67 48 59 53 39 24 19 11 14 15 15 19 25 25 29 33 37 39 41 41 42 45 47 49 50 52 56 58 61 61 57 49 46 49
62 59 63 48 59 44 54 54 45 42 50 50 47 33 27 26 17 17 18 20 24 27 32 33 36 39 40 42 44 45 47 49 53 56 58 60 61 62 65 68 70 73 73 62
61 61 63 61 45 45 48 59 47 54 49 48 25 20 24 15 8 11 17 20 22 26 31 34 37 39 41 43 46 48 51 53 57 59 61 62 64 67 70 73 75 79 82 89
54 58 57 43 46 46 48 64 48 50 34 15 23 33 29 13 11 12 17 23 24 29 33 36 40 42 43 45 48 51 54 55 57 58 58 60 64 68 70 72 76 77 79 74
65 65 64 60 60 53 58 55 52 50 14 13 22 22 12 13 16 20 26 28 31 35 39 43 45 45 47 49 52 53 54 55 57 59 58 61 63 65 67 69 69 70 70 71
50 58 70 53 58 51 39 35 35 19 18 15 13 10 9 13 18 23 27 32 36 39 43 47 49 48 49 51 52 51 51 53 56 58 59 61 63 63 63 64 65 67 68 70
46 47 40 40 34 33 29 21 24 16 8 5 1 7 7 18 19 26 30 35 40 43 45 48 50 50 51 52 51 49 49 51 54 57 59 60 63 65 64 64 64 66 67 69
38 31 30 32 29 24 22 22 21 18 19 14 12 17 18 22 28 33 37 40 42 44 48 50 52 52 52 51 50 49 49 51 51 54 57 60 60 63 65 64 64 64 66 66
37 20 20 26 25 21 19 18 18 20 23 23 21 22 25 28 33 37 40 42 43 45 47 49 51 52 52 52 49 49 49 49 51 52 54 56 60 62 63 66 63 61 61 62
34 37 28 26 29 25 21 24 23 23 23 26 27 28 30 33 37 39 40 42 43 45 47 49 49 51 51 49 46 45 46 49 51 52 53 54 54 55 63 63 65 65 63 58
25 15 16 16 24 22 21 21 22 22 27 26 29 28 30 33 35 36 38 40 42 43 43 43 45 47 49 48 45 45 46 47 48 50 51 52 53 54 55 55 60 64 65 64
24 25 26 29 26 30 26 27 27 28 30 30 30 32 31 32 34 36 37 38 39 41 43 44 45 48 50 48 47 46 46 47 47 49 50 51 52 53 52 54 55 57 60 61
31 31 27 25 29 32 33 33 35 36 35 36 33 32 31 30 32 35 37 38 39 42 45 47 48 50 50 48 47 47 47 47 47 48 49 49 49 49 49 50 52 52 54 55
34 33 33 33 35 38 39 39 37 37 35 33 31 31 30 30 32 34 37 39 40 44 47 48 50 52 50 49 48 48 47 48 47 46 46 47 48 48 49 50 51 53 55 57
41 41 39 38 39 40 38 35 33 31 31 31 30 29 29 30 32 35 38 40 42 45 48 50 51 50 50 49 48 47 47 47 46 46 46 46 47 48 48 49 51 52 53 54
40 39 37 35 34 33 34 32 31 31 31 30 28 28 29 31 33 36 40 41 43 46 50 51 50 50 50 49 48 47 46 46 46 46 46 47 47 48 48 48 49 49 50 52
36 34 33 33 33 32 31 30 28 27 27 27 27 29 30 33 36 38 40 43 45 47 51 51 50 49 50 50 47 46 46 45 46 46 45 46 47 47 47 47 47 48 48 48
35 33 32 31 31 29 28 28 26 25 26 25 27 29 32 34 37 39 41 43 46 45 48 49 49 50 50 50 48 47 47 47 47 46 46 46 46 47 47 47 46 46 47 47
29 27 27 26 27 27 27 26 25 26 28 29 30 33 35 38 40 41 43 45 47 47 48 49 50 50 50 49 49 48 47 47 47 46 46 46 46 47 47 47 47 47 47 46
26 25 25 26 26 27 28 28 27 27 28 30 32 33 36 39 41 42 43 44 46 47 48 50 51 51 50 49 49 48 48 47 47 46 46 46 46 46 47 47 48 48 47 47
25 25 26 26 27 27 28 29 28 28 30 31 33 36 39 41 42 45 47 45 46 47 48 49 50 50 49 49 48 48 48 48 48 47 46 46 46 47 48 50 49 48 47 46
25 25 26 26 27 27 28 30 31 32 33 33 34 37 41 43 45 44 41 44 46 48 49 50 50 50 49 48 48 49 49 48 47 46 45 45 45 47 48 51 50 47 46 46
24 25 25 27 29 30 29 29 31 33 36 38 39 42 43 42 45 43 44 44 47 48 50 50 51 49 48 47 47 48 47 48 47 46 45 48 49 50 50 49 49 48 48 47
26 28 31 34 35 34 31 31 35 36 39 42 44 44 44 44 43 43 44 45 45 47 48 48 48 46 47 47 47 46 46 47 46 47 47 47 47 48 48 47 47 48 47 46
31 31 34 38 41 41 38 39 39 40 40 42 46 44 43 44 44 44 44 45 45 45 46 45 45 44 46 46 48 47 46 46 46 46 47 47 47 47 45 43 45 48 48 46
Wind_Direction
278 280 277 267 267 273 268 263 259 262 252 247 262 273 285 282 290 347 6 356 346 328 313 314 313 311 312 319 326 330 336 317 306 304 296 293 288 280 275 272 264 262 258 253
275 281 284 273 270 270 274 266 268 258 253 263 254 254 263 272 283 290 301 344 343 349 323 317 321 315 318 322 326 327 332 329 322 320 315 299 294 291 287 280 274 277 270 266
270 280 282 273 281 275 277 275 278 258 261 259 247 250 257 260 254 280 306 321 328 342 328 325 331 323 327 328 328 328 324 322 318 315 313 311 304 301 294 290 289 284 279 277
270 279 269 274 282 291 274 271 272 274 264 262 260 250 264 236 259 266 281 295 303 308 316 323 329 329 324 325 329 332 324 323 319 314 311 308 306 304 301 298 295 293 289 285
267 268 269 275 283 284 284 273 272 270 272 263 241 233 251 278 293 278 275 296 312 315 309 324 326 320 324 328 331 333 332 328 324 320 315 311 308 306 303 300 298 296 294 290
265 265 264 272 293 293 294 265 278 278 280 223 214 230 234 272 292 321 324 327 314 315 324 325 322 326 331 330 331 331 330 331 331 330 328 324 318 312 307 305 302 302 301 302
261 262 264 273 282 288 266 268 287 265 241 198 230 254 226 263 284 301 313 320 329 333 331 330 330 330 328 328 329 331 332 334 334 334 332 330 325 322 317 314 312 310 309 308
266 262 260 287 276 274 288 303 303 294 254 228 242 242 253 292 301 308 312 316 321 324 326 332 331 330 329 329 332 334 336 337 338 338 338 336 334 332 330 326 322 319 317 315
267 268 284 300 300 295 287 308 303 315 340 108 260 268 326 316 335 322 328 328 329 329 331 336 336 336 332 334 335 337 338 338 339 340 341 340 339 336 334 332 329 327 325 321
277 281 293 301 308 321 306 300 305 293 276 280 280 281 310 319 323 325 329 330 332 331 332 330 333 337 338 336 338 337 336 336 338 341 344 345 345 346 344 340 338 335 331 329
293 306 315 314 311 316 308 319 316 302 286 288 288 299 304 319 328 331 332 332 334 333 334 335 335 339 343 344 342 342 341 339 341 342 344 349 354 353 353 355 352 346 346 344
287 283 296 303 303 305 292 301 298 302 304 303 301 306 314 321 326 331 334 335 336 335 335 337 340 341 345 348 348 344 343 342 342 342 344 345 345 350 3 4 4 4 2 360
281 301 336 325 349 345 321 314 329 318 314 323 315 320 324 326 333 337 338 339 340 344 348 348 347 347 347 351 351 347 346 346 347 349 349 349 349 350 349 354 4 5 5 5
303 292 305 309 317 346 338 309 312 325 338 328 332 329 326 331 339 341 341 343 346 348 349 348 348 346 344 348 350 351 352 353 352 352 351 351 351 350 351 351 352 355 1 2
324 330 329 330 329 322 341 325 314 319 320 321 326 328 335 338 340 341 341 344 344 345 345 344 343 342 343 346 348 348 348 349 350 351 351 352 353 354 353 352 352 353 355 358
318 329 333 330 327 335 331 330 328 312 324 325 333 331 342 347 343 340 340 339 340 339 339 339 340 339 342 344 346 348 349 350 351 351 349 349 350 349 348 348 348 349 347 345
308 312 318 323 322 327 330 334 341 344 343 339 333 339 341 340 340 339 337 339 340 340 340 340 339 342 345 347 348 348 349 350 349 349 346 347 346 345 346 348 347 348 348 348
315 316 321 326 331 333 331 336 339 340 337 337 339 341 340 338 336 335 335 337 338 338 339 340 343 344 345 345 344 343 345 345 347 347 345 345 344 344 345 348 349 348 348 349
326 327 329 330 332 336 337 337 341 346 347 346 346 344 344 342 339 338 337 336 336 336 338 341 343 344 342 342 345 345 346 346 346 347 348 346 345 345 346 348 349 349 349 349
324 328 333 337 340 344 347 348 350 352 353 354 352 348 346 344 344 343 342 341 341 340 340 340 341 340 340 341 343 344 345 344 342 344 345 344 344 343 345 345 346 346 346 347
339 346 348 351 354 355 356 356 354 349 348 348 346 343 342 341 339 338 337 333 338 339 339 340 340 339 339 340 341 343 344 344 343 343 343 342 342 342 342 342 342 342 342 342
9 10 9 19 4 8 12 10 7 2 356 353 351 348 344 341 341 340 340 337 337 339 339 338 338 339 339 340 341 341 341 341 340 340 340 340 340 340 339 339 338 338 339 339
17 21 21 17 15 12 8 2 359 357 352 349 345 342 338 337 335 331 330 336 337 338 338 338 339 339 340 340 340 340 339 339 338 337 338 338 338 337 336 335 335 335 336 337
28 28 22 20 16 8 2 356 354 352 350 348 345 343 339 336 337 338 339 338 338 337 337 337 337 338 338 338 339 338 338 337 336 336 337 337 337 337 336 334 334 336 336 336
23 18 12 4 357 354 354 353 349 346 343 342 340 339 340 339 335 336 337 336 336 336 336 337 337 337 338 338 337 337 338 338 337 336 335 332 331 331 332 333 333 333 332 333
7 360 354 350 345 343 342 341 335 335 335 334 335 338 338 339 338 337 336 335 334 334 334 336 338 339 339 339 338 337 336 336 336 334 334 332 332 331 332 332 333 334 335 334
4 360 353 348 347 347 345 337 334 331 331 331 330 334 335 336 336 336 335 335 335 336 335 336 336 337 337 337 335 334 334 333 333 332 332 332 332 332 332 333 334 334 335 335